DW4879 Weather Reports


Display with metric or nautical units.
time (UTC)temp
F
wind
direction
speed
MPH
gust
MPH
rain 1hr
in
rain 24hr
in
rain mn
in
humidity
%
barometer
mb
20260901192008 78 225 2.0 8.0 0.00 0.00 0.00 42 1025.0
20260901191516 77 279 3.0 5.0 0.00 0.00 0.00 43 1025.0
20260901191024 77 288 2.0 6.0 0.00 0.00 0.00 42 1025.1
20260901190532 77 248 3.0 7.0 0.00 0.00 0.00 42 1025.1
20260901190039 77 289 1.0 9.0 0.00 0.00 0.00 44 1025.0
20260901185547 77 288 3.0 9.0 0.00 0.04 0.00 43 1025.1
20260901185054 77 204 2.0 8.0 0.00 0.04 0.00 46 1025.2
20260901184603 77 298 4.0 8.0 0.00 0.04 0.00 43 1025.2
20260901184003 77 333 1.0 9.0 0.00 0.04 0.00 44 1025.3
20260901183559 77 308 1.0 7.0 0.00 0.04 0.00 45 1025.4
20260901183000 76 252 1.0 4.0 0.00 0.04 0.00 47 1025.5
20260901182600 77 347 1.0 8.0 0.00 0.04 0.00 47 1025.5
20260901182003 77 236 3.0 8.0 0.00 0.04 0.00 48 1025.4
20260901181559 76 210 1.0 8.0 0.00 0.04 0.00 46 1025.4
20260901181003 76 282 4.0 7.0 0.00 0.04 0.00 47 1025.5
20260901180513 76 302 1.0 5.0 0.00 0.04 0.00 45 1025.5
20260901180039 76 155 2.0 8.0 0.00 0.04 0.00 46 1025.4
20260901175545 75 247 3.0 8.0 0.00 0.05 0.00 45 1025.5
20260901175053 75 355 2.0 8.0 0.00 0.05 0.00 46 1025.4
20260901174604 75 291 4.0 8.0 0.00 0.05 0.00 45 1025.5
20260901174006 75 254 2.0 6.0 0.00 0.05 0.00 47 1025.4
20260901173559 75 34 1.0 4.0 0.00 0.05 0.00 46 1025.5
20260901173001 76 261 2.0 4.0 0.00 0.05 0.00 45 1025.6
20260901172559 76 190 1.0 6.0 0.00 0.05 0.00 46 1025.5
20260901172052 75 241 2.0 6.0 0.00 0.05 0.00 49 1025.5
20260901171547 75 242 1.0 4.0 0.00 0.05 0.00 48 1025.5
20260901171052 75 107 2.0 4.0 0.00 0.05 0.00 48 1025.6
20260901170602 74 162 2.0 5.0 0.00 0.05 0.00 50 1025.5
20260901170002 74 192 1.0 5.0 0.00 0.05 0.00 53 1025.5
20260901165601 73 123 1.0 4.0 0.00 0.05 0.00 51 1025.5
20260901165002 73 116 1.0 7.0 0.00 0.05 0.00 49 1025.5
20260901164604 72 128 2.0 7.0 0.00 0.05 0.00 51 1025.5
20260901164002 72 107 1.0 4.0 0.00 0.05 0.00 51 1025.6
20260901163559 71 159 1.0 6.0 0.00 0.05 0.00 53 1025.6
20260901163049 71 24 3.0 6.0 0.00 0.05 0.00 54 1025.6
20260901162557 71 12 2.0 6.0 0.00 0.05 0.00 54 1025.5
20260901162052 71 76 2.0 7.0 0.00 0.05 0.00 55 1025.6
20260901161559 70 84 0.0 7.0 0.00 0.05 0.00 56 1025.4
20260901161050 69 88 3.0 6.0 0.00 0.05 0.00 60 1025.4
20260901160540 69 104 1.0 5.0 0.00 0.05 0.00 59 1025.5
20260901160055 68 65 2.0 5.0 0.00 0.05 0.00 57 1025.5
20260901155557 68 54 2.0 6.0 0.00 0.05 0.00 59 1025.5
20260901155105 68 40 3.0 6.0 0.00 0.05 0.00 59 1025.6
20260901154559 67 105 2.0 8.0 0.00 0.05 0.00 59 1025.7
20260901154102 67 50 3.0 8.0 0.00 0.05 0.00 58 1025.7
20260901153554 67 90 1.0 7.0 0.00 0.05 0.00 61 1025.7
20260901153119 67 77 2.0 6.0 0.00 0.05 0.00 60 1025.7
20260901152555 66 126 3.0 8.0 0.00 0.05 0.00 63 1025.6
20260901152050 66 118 4.0 8.0 0.00 0.05 0.00 63 1025.6
20260901151538 65 103 0.0 8.0 0.00 0.05 0.00 67 1025.6
20260901151046 65 130 5.0 8.0 0.00 0.05 0.00 67 1025.5
20260901150538 65 119 5.0 8.0 0.00 0.05 0.00 67 1025.4
20260901150047 65 138 3.0 7.0 0.00 0.05 0.00 67 1025.5
20260901145555 65 88 4.0 7.0 0.00 0.05 0.00 67 1025.5
20260901145103 65 130 4.0 6.0 0.00 0.05 0.00 64 1025.4
20260901144554 65 94 3.0 6.0 0.00 0.05 0.00 65 1025.4
20260901144101 64 93 1.0 5.0 0.00 0.05 0.00 65 1025.4
20260901143554 63 33 2.0 4.0 0.00 0.05 0.00 67 1025.5
20260901143046 63 32 2.0 4.0 0.00 0.05 0.00 67 1025.5
20260901142555 63 46 2.0 5.0 0.00 0.05 0.00 68 1025.4
20260901142047 62 63 2.0 4.0 0.00 0.05 0.00 69 1025.4
20260901141554 62 84 2.0 4.0 0.00 0.05 0.00 71 1025.6
20260901141105 61 105 1.0 4.0 0.00 0.05 0.00 72 1025.5
20260901140505 61 49 1.0 5.0 0.00 0.05 0.00 73 1025.4
20260901140011 60 80 1.0 6.0 0.00 0.05 0.00 74 1025.5
20260901135530 59 111 1.0 4.0 0.00 0.05 0.00 75 1025.5
20260901135043 59 98 0.0 4.0 0.00 0.05 0.00 77 1025.5
20260901134552 58 74 1.0 4.0 0.00 0.05 0.00 77 1025.5
20260901134059 58 57 1.0 4.0 0.00 0.05 0.00 78 1025.4
20260901133513 57 46 1.0 5.0 0.00 0.05 0.00 80 1025.3
20260901133027 57 53 2.0 5.0 0.00 0.05 0.00 81 1025.3
20260901132537 56 38 2.0 5.0 0.00 0.05 0.00 82 1025.2
20260901132012 56 40 1.0 4.0 0.00 0.05 0.00 84 1025.1
20260901131531 55 82 2.0 4.0 0.00 0.05 0.00 84 1025.1
20260901131049 55 77 2.0 5.0 0.00 0.05 0.00 85 1025.1
20260901130559 55 94 2.0 5.0 0.00 0.05 0.00 85 1025.1
20260901130502 55 85 2.0 5.0 0.00 0.05 0.00 84 1025.1
20260901130015 55 77 3.0 5.0 0.00 0.05 0.00 84 1025.2
20260901125529 55 77 3.0 5.0 0.00 0.05 0.00 84 1025.1
20260901125052 55 75 2.0 6.0 0.00 0.05 0.00 84 1025.0
20260901124502 56 111 3.0 6.0 0.00 0.05 0.00 83 1024.9
20260901124014 56 119 2.0 4.0 0.00 0.05 0.00 83 1024.8
20260901123525 56 103 2.0 6.0 0.00 0.05 0.00 82 1024.9
20260901123046 56 102 2.0 6.0 0.00 0.05 0.00 82 1024.8
20260901122503 56 105 3.0 6.0 0.00 0.05 0.00 81 1024.7
20260901122017 56 74 3.0 10.0 0.00 0.05 0.00 81 1024.7
20260901121540 56 63 4.0 10.0 0.00 0.05 0.00 82 1024.7
20260901121052 56 81 3.0 6.0 0.00 0.05 0.00 82 1024.7
20260901120507 56 85 3.0 8.0 0.00 0.05 0.00 83 1024.7
20260901120019 56 52 3.0 8.0 0.00 0.05 0.00 83 1024.7
20260901115537 55 47 3.0 5.0 0.00 0.05 0.00 85 1024.8
20260901115051 55 67 3.0 5.0 0.00 0.05 0.00 86 1024.7
20260901114558 55 38 2.0 3.0 0.00 0.05 0.00 86 1024.8
20260901114009 55 40 2.0 5.0 0.00 0.05 0.00 86 1024.7
20260901113517 56 38 2.0 5.0 0.00 0.05 0.00 86 1024.7
20260901113028 56 69 1.0 4.0 0.00 0.05 0.00 86 1024.7
20260901112544 56 93 1.0 3.0 0.00 0.05 0.00 87 1024.7
20260901112056 56 79 1.0 4.0 0.00 0.05 0.00 87 1024.6
20260901111511 56 98 2.0 4.0 0.00 0.05 0.00 87 1024.7
20260901111026 56 101 1.0 3.0 0.00 0.05 0.00 86 1024.5
20260901110544 56 101 1.0 3.0 0.00 0.05 0.00 86 1024.6
20260901110055 56 101 2.0 3.0 0.00 0.05 0.00 86 1024.5
20260901105508 56 83 2.0 4.0 0.00 0.05 0.00 86 1024.5
20260901105025 56 81 2.0 4.0 0.00 0.05 0.00 86 1024.6
20260901104607 56 101 2.0 3.0 0.00 0.05 0.00 86 1024.7
20260901104501 56 101 2.0 3.0 0.00 0.05 0.00 86 1024.6
20260901104056 56 82 2.0 3.0 0.00 0.05 0.00 86 1024.6
20260901103604 56 82 1.0 2.0 0.00 0.05 0.00 86 1024.7
20260901103007 57 82 1.0 3.0 0.00 0.05 0.00 86 1024.7
20260901102604 57 82 1.0 3.0 0.00 0.05 0.00 86 1024.7
20260901102006 57 82 1.0 3.0 0.00 0.05 0.00 86 1024.6
20260901101612 57 82 2.0 3.0 0.00 0.05 0.00 86 1024.6
20260901101004 57 96 0.0 3.0 0.00 0.05 0.00 86 1024.6
20260901100511 57 96 1.0 3.0 0.00 0.05 0.00 86 1024.7
20260901100101 57 96 1.0 3.0 0.00 0.05 0.00 86 1024.6
20260901095553 57 96 2.0 3.0 0.00 0.05 0.00 85 1024.6
20260901095043 57 61 1.0 2.0 0.00 0.05 0.00 85 1024.7
20260901094553 57 61 1.0 2.0 0.00 0.05 0.00 85 1024.7
20260901094059 57 61 1.0 2.0 0.00 0.05 0.00 84 1024.7
20260901093502 57 61 1.0 2.0 0.00 0.05 0.00 84 1024.7
20260901093100 57 61 0.0 2.0 0.00 0.05 0.00 83 1024.6
20260901092503 58 61 0.0 2.0 0.00 0.05 0.00 83 1024.6
20260901092101 57 61 0.0 2.0 0.00 0.05 0.00 83 1024.7
20260901091555 58 61 1.0 2.0 0.00 0.05 0.00 83 1024.8
20260901091057 58 61 0.0 3.0 0.00 0.05 0.00 82 1024.8
20260901090551 58 61 0.0 3.0 0.00 0.05 0.00 83 1024.8
20260901090058 58 42 2.0 4.0 0.00 0.05 0.00 83 1024.8
20260901085501 58 30 2.0 4.0 0.00 0.06 0.00 83 1024.8
20260901085011 57 49 2.0 4.0 0.00 0.06 0.00 84 1024.8
20260901084501 57 34 2.0 4.0 0.00 0.06 0.00 84 1024.8
20260901084011 57 5 1.0 2.0 0.00 0.06 0.00 85 1024.9
20260901083604 58 5 1.0 2.0 0.00 0.06 0.00 85 1025.0
20260901083054 58 5 1.0 2.0 0.00 0.06 0.00 85 1025.0
20260901082602 58 5 1.0 2.0 0.00 0.06 0.00 85 1025.0
20260901082054 58 5 1.0 2.0 0.00 0.06 0.00 85 1025.0
20260901081550 58 348 1.0 2.0 0.00 0.06 0.00 85 1025.1
20260901081052 58 348 0.0 2.0 0.00 0.06 0.00 86 1025.1
20260901080543 58 130 0.0 2.0 0.00 0.06 0.00 86 1025.2
20260901080059 58 350 0.0 3.0 0.00 0.06 0.00 86 1025.1
20260901075600 58 350 0.0 3.0 0.00 0.06 0.00 86 1025.2
20260901075002 58 329 0.0 2.0 0.00 0.06 0.00 86 1025.3
20260901074614 58 329 1.0 2.0 0.00 0.06 0.00 86 1025.3
20260901074001 58 329 1.0 3.0 0.00 0.06 0.00 87 1025.2
20260901073558 58 329 1.0 3.0 0.00 0.06 0.00 86 1025.2
20260901073001 58 300 0.0 2.0 0.00 0.06 0.00 85 1025.3
20260901072559 58 300 0.0 2.0 0.00 0.06 0.00 85 1025.3
20260901072002 59 300 0.0 0.0 0.00 0.06 0.00 84 1025.3
20260901071510 59 300 0.0 0.0 0.00 0.06 0.00 84 1025.2
20260901071003 59 300 0.0 2.0 0.00 0.06 0.00 84 1025.2
20260901070508 59 300 0.0 2.0 0.00 0.06 0.00 84 1025.1
20260901070112 59 300 0.0 3.0 0.00 0.06 0.00 84 1025.1
20260901065554 59 51 1.0 3.0 0.00 0.06 0.00 83 1025.1
20260901065101 59 65 0.0 3.0 0.00 0.06 0.00 84 1024.9
20260901064554 59 67 1.0 4.0 0.00 0.06 0.00 83 1024.9
20260901064045 59 76 2.0 3.0 0.00 0.06 0.00 83 1024.9
20260901063552 59 73 0.0 1.0 0.00 0.06 0.00 83 1025.0
20260901063046 59 73 0.0 3.0 0.00 0.06 0.00 82 1025.1
20260901062551 59 73 0.0 4.0 0.00 0.06 0.00 82 1025.0
20260901062100 59 73 1.0 4.0 0.00 0.06 0.00 82 1025.0
20260901061503 59 65 1.0 3.0 0.00 0.06 0.00 81 1025.1
20260901061058 59 38 1.0 3.0 0.00 0.06 0.00 82 1025.0
20260901060605 59 38 1.0 3.0 0.00 0.06 0.00 82 1025.0
20260901060053 59 38 1.0 2.0 0.00 0.06 0.00 82 1025.0
20260901055600 60 38 1.0 2.0 0.00 0.06 0.06 83 1025.0
20260901055056 60 38 0.0 0.0 0.00 0.06 0.06 83 1025.1
20260901054606 60 38 0.0 2.0 0.00 0.06 0.06 82 1025.0
20260901054005 60 38 0.0 3.0 0.00 0.06 0.06 83 1024.9
20260901053559 60 38 0.0 4.0 0.00 0.06 0.06 83 1024.9
20260901053003 60 33 2.0 4.0 0.00 0.06 0.06 83 1024.8
20260901052559 60 21 3.0 4.0 0.00 0.06 0.06 84 1024.8
20260901052002 60 47 2.0 3.0 0.00 0.06 0.06 84 1024.8
20260901051614 60 98 1.0 2.0 0.00 0.06 0.06 84 1024.8
20260901051051 60 98 1.0 2.0 0.00 0.06 0.06 84 1024.8
20260901050558 60 98 0.0 1.0 0.00 0.06 0.06 85 1024.9
20260901050002 60 98 0.0 1.0 0.00 0.06 0.06 85 1025.0
20260901045511 61 98 0.0 2.0 0.00 0.06 0.06 85 1025.0
20260901045019 61 98 0.0 2.0 0.00 0.06 0.06 85 1025.0
20260901044527 61 98 0.0 2.0 0.00 0.06 0.06 84 1025.0
20260901044032 61 98 0.0 2.0 0.00 0.06 0.06 84 1025.0
20260901043539 61 98 0.0 2.0 0.00 0.06 0.06 84 1025.0
20260901043050 61 98 0.0 2.0 0.00 0.06 0.06 83 1024.8
20260901042557 61 98 1.0 2.0 0.00 0.06 0.06 84 1024.8
20260901042046 61 98 1.0 3.0 0.00 0.06 0.06 83 1025.0
20260901041608 61 98 1.0 2.0 0.00 0.06 0.06 84 1024.9
20260901041050 61 98 0.0 2.0 0.00 0.06 0.06 84 1024.9
20260901040537 61 98 0.0 1.0 0.00 0.06 0.06 84 1025.1
20260901040044 61 98 0.0 1.0 0.00 0.06 0.06 84 1025.0
20260901035555 61 98 0.0 2.0 0.00 0.06 0.06 84 1025.1
20260901035059 61 98 1.0 2.0 0.00 0.06 0.06 84 1025.1
20260901034553 61 98 1.0 3.0 0.00 0.06 0.06 84 1024.9
20260901034101 61 98 2.0 3.0 0.00 0.06 0.06 84 1024.7
20260901033553 61 127 0.0 2.0 0.00 0.06 0.06 84 1025.0
20260901033046 61 127 1.0 2.0 0.00 0.06 0.06 85 1024.8
20260901032557 61 127 0.0 1.0 0.00 0.06 0.06 84 1025.0
20260901032100 61 127 0.0 2.0 0.00 0.06 0.06 84 1025.1
20260901031504 61 127 0.0 2.0 0.00 0.06 0.06 84 1024.9
20260901031101 61 127 0.0 2.0 0.00 0.06 0.06 85 1024.9
20260901030505 61 127 1.0 2.0 0.00 0.06 0.06 85 1024.8
20260901030105 61 127 1.0 3.0 0.00 0.06 0.06 84 1024.8
20260901025552 61 127 1.0 3.0 0.00 0.06 0.06 84 1024.7
20260901025100 61 105 1.0 3.0 0.00 0.06 0.06 84 1024.7
20260901024553 62 113 1.0 3.0 0.00 0.06 0.06 84 1024.5
20260901024100 62 101 1.0 2.0 0.00 0.06 0.06 83 1024.5
20260901023553 62 101 1.0 4.0 0.00 0.06 0.06 83 1024.4
20260901023045 62 101 1.0 4.0 0.00 0.06 0.06 83 1024.3
20260901022551 62 109 1.0 6.0 0.00 0.06 0.06 82 1024.2
20260901022059 62 105 3.0 6.0 0.00 0.06 0.06 82 1024.1
20260901021503 62 87 2.0 5.0 0.00 0.06 0.06 82 1024.1
20260901021057 62 84 2.0 4.0 0.00 0.06 0.06 82 1024.3
20260901020605 62 44 2.0 4.0 0.00 0.06 0.06 82 1024.2
20260901020042 63 82 2.0 4.0 0.00 0.06 0.06 82 1024.1
20260901015551 63 65 2.0 4.0 0.00 0.06 0.06 82 1024.2
20260901015059 63 107 1.0 4.0 0.00 0.06 0.06 81 1024.3
20260901014558 63 80 2.0 4.0 0.00 0.06 0.06 81 1024.2
20260901014059 63 85 1.0 4.0 0.00 0.06 0.06 80 1024.4
20260901013551 63 114 1.0 5.0 0.00 0.06 0.06 80 1024.5
20260901013044 64 105 2.0 5.0 0.00 0.06 0.06 79 1024.3
20260901012552 64 77 1.0 7.0 0.00 0.06 0.06 79 1024.3
20260901012059 64 99 3.0 8.0 0.00 0.06 0.06 79 1024.4
20260901011503 64 130 4.0 8.0 0.00 0.06 0.06 78 1024.4
20260901011101 64 89 3.0 7.0 0.00 0.06 0.06 78 1024.4
20260901010503 65 80 2.0 6.0 0.00 0.06 0.06 77 1024.4
20260901010059 65 103 2.0 6.0 0.00 0.06 0.06 77 1024.5
20260901005504 65 102 3.0 5.0 0.00 0.09 0.06 76 1024.4
20260901005011 65 105 2.0 5.0 0.00 0.09 0.06 76 1024.3
20260901004603 65 78 2.0 5.0 0.00 0.09 0.06 76 1024.2
20260901004007 65 72 1.0 3.0 0.00 0.09 0.06 77 1024.5
20260901003604 65 111 2.0 3.0 0.00 0.09 0.06 75 1024.6
20260901003008 65 111 1.0 3.0 0.00 0.09 0.06 75 1024.7
20260901002603 65 93 1.0 4.0 0.00 0.09 0.06 76 1024.7
20260901002053 65 64 2.0 4.0 0.00 0.09 0.06 76 1024.6
20260901001609 65 84 2.0 5.0 0.00 0.09 0.06 75 1024.6
20260901001053 66 89 1.0 5.0 0.00 0.09 0.06 76 1024.8
20260901000601 66 88 3.0 5.0 0.00 0.09 0.06 76 1025.0
20260831235547 66 101 2.0 4.0 0.00 0.32 0.06 77 1025.2
20260831235052 66 50 0.0 2.0 0.00 0.32 0.06 70 1025.2
20260831234626 66 50 1.0 5.0 0.00 0.32 0.06 71 1025.2
20260831234004 66 34 1.0 5.0 0.00 0.32 0.06 72 1025.2
20260831233602 67 22 2.0 5.0 0.00 0.32 0.06 72 1025.1
20260831233004 67 38 0.0 5.0 0.00 0.32 0.06 72 1025.2
20260831232601 67 38 2.0 5.0 0.00 0.32 0.06 72 1025.2
20260831232004 67 86 1.0 6.0 0.00 0.32 0.06 70 1025.2
20260831231512 67 117 2.0 8.0 0.00 0.32 0.06 71 1025.2
20260831231105 66 138 2.0 8.0 0.00 0.32 0.06 74 1025.1
20260831230509 66 46 2.0 6.0 0.00 0.32 0.06 74 1025.1
20260831230104 66 92 3.0 6.0 0.00 0.32 0.06 74 1025.1
20260831225554 66 78 4.0 6.0 0.00 0.32 0.06 74 1025.2
20260831225103 66 80 2.0 5.0 0.00 0.32 0.06 74 1025.1
20260831224554 66 136 3.0 6.0 0.00 0.32 0.06 76 1025.3
20260831224105 66 123 2.0 4.0 0.00 0.32 0.06 76 1025.4
20260831223555 66 86 2.0 6.0 0.00 0.32 0.06 74 1025.4
20260831223045 66 76 2.0 6.0 0.00 0.32 0.06 74 1025.4
20260831222553 66 90 1.0 5.0 0.00 0.32 0.06 75 1025.4
20260831222100 66 74 1.0 6.0 0.00 0.32 0.06 74 1025.4
20260831221504 66 105 3.0 6.0 0.00 0.32 0.06 75 1025.5
20260831221058 66 70 1.0 3.0 0.00 0.32 0.06 75 1025.5
20260831220605 66 62 0.0 2.0 0.00 0.32 0.06 74 1025.7
20260831220042 65 62 0.0 2.0 0.00 0.32 0.06 75 1025.7
20260831215558 65 355 0.0 4.0 0.00 0.32 0.06 77 1025.8
20260831215015 65 347 1.0 5.0 0.00 0.32 0.06 76 1025.8
20260831214530 65 336 2.0 5.0 0.00 0.32 0.06 77 1025.8
20260831214047 65 346 3.0 5.0 0.00 0.32 0.06 76 1025.8
20260831213506 65 317 3.0 8.0 0.00 0.32 0.06 77 1026.0
20260831213022 65 19 2.0 8.0 0.00 0.32 0.06 77 1025.8
20260831212541 65 355 2.0 6.0 0.00 0.32 0.06 77 1025.7
20260831212054 65 17 3.0 6.0 0.00 0.32 0.06 78 1025.8
20260831211517 65 34 2.0 5.0 0.00 0.32 0.06 78 1025.7
20260831211036 65 30 2.0 5.0 0.00 0.32 0.06 77 1025.8
20260831210546 65 75 0.0 3.0 0.00 0.32 0.06 76 1025.9
20260831210056 65 67 1.0 3.0 0.00 0.32 0.06 75 1026.0
20260831205513 65 9 1.0 3.0 0.00 0.32 0.06 76 1026.1
20260831205028 65 63 1.0 3.0 0.00 0.32 0.06 77 1026.3
20260831204509 65 106 1.0 2.0 0.00 0.32 0.06 76 1026.4
20260831204026 65 114 0.0 2.0 0.00 0.32 0.06 77 1026.5
20260831203541 65 145 0.0 4.0 0.00 0.32 0.06 76 1026.4
20260831203110 65 53 2.0 4.0 0.00 0.32 0.06 77 1026.4
20260831202513 65 115 1.0 3.0 0.00 0.32 0.06 76 1026.4
20260831202030 64 323 2.0 4.0 0.00 0.32 0.06 78 1026.4
20260831201547 64 64 1.0 4.0 0.00 0.32 0.06 78 1026.3
20260831201056 64 126 2.0 7.0 0.00 0.32 0.06 80 1026.5
20260831200545 64 30 3.0 7.0 0.00 0.32 0.06 81 1026.4
20260831200052 63 80 2.0 9.0 0.00 0.32 0.06 83 1026.2
20260831195604 63 32 5.0 11.0 0.00 0.32 0.06 82 1026.0
20260831195004 63 24 5.0 10.0 0.00 0.32 0.06 83 1026.0
20260831194604 63 13 5.0 10.0 0.00 0.32 0.06 83 1026.2
20260831194002 63 346 5.0 12.0 0.00 0.32 0.06 84 1026.3
20260831193600 63 360 5.0 12.0 0.00 0.32 0.06 85 1026.5
20260831193004 63 333 7.0 12.0 0.00 0.32 0.06 84 1026.5
20260831192601 62 320 7.0 14.0 0.00 0.32 0.06 84 1026.7